Flag for Albania Weather past 2 weeks in Durrës, Albania

Now
81 °F

Scattered clouds.


Feels Like: 82 °F
Forecast: 73 / 84 °F
Wind: 9 mph from Northwest

Location: Tirana Airport

Current Time: Jul 25, 2014 at 6:14:47 PM

Latest Report: Jul 25, 2014 at 5:20 PM


Visibility: N/A

Pressure: 29.89 "Hg

Humidity: 58%

Dew point: 64 °F

Location of DurrësLocation

Historic Weather in Durrës — Graph

°F

Durrës temperature yesterday

Maximum temperature yesterday: 84 °F (at 2:20 PM)
Minimum temperature yesterday: 64 °F (at 12:50 AM)
Average temperature yesterday: 74 °F

Past Weeks' High & Low Weather Summary

 TemperatureHumidityPressure
High91 °F (Jul 19, 1:50 PM)94% (Jul 12, 3:20 AM)29.98 "Hg (Jul 12, 3:20 AM)
Low59 °F (Jul 16, 2:50 AM)34% (Jul 10, 5:20 PM)29.68 "Hg (Jul 11, 3:20 AM)
Average74 °F70%29.87 "Hg
* Reported Jul 10 4:20 PM — Jul 25 4:50 PM, Durrës, Weather by CustomWeather, © 2014

Note: Actual official high and low records may vary slightly from our data, if they occured in-between our weather recording intervals... More about our weather records

Advertising

Durrës weather history for previous 24 hours

 ConditionsComfort  
Time TempWeatherWind HumidityBarometerVisibility
4:50 PM
Jul 25
79 °FScattered clouds.9 mph65%29.89 "HgN/A
4:20 PM81 °FScattered clouds.10 mph62%29.86 "HgN/A
3:50 PM79 °FScattered clouds.10 mph61%29.86 "HgN/A
3:20 PM81 °FScattered clouds.10 mph62%29.86 "HgN/A
2:20 PM82 °FScattered clouds.8 mph62%29.86 "HgN/A
1:50 PM81 °FScattered clouds.8 mph62%29.89 "HgN/A
1:20 PM81 °FScattered clouds.7 mph66%29.89 "HgN/A
12:50 PM81 °FScattered clouds.8 mph66%29.89 "HgN/A
12:20 PM84 °FPassing clouds.6 mph62%29.89 "HgN/A
11:50 AM84 °FPassing clouds.3 mph62%29.89 "HgN/A
11:20 AM84 °FPassing clouds.5 mph58%29.89 "HgN/A
10:50 AM82 °FPassing clouds.5 mph58%29.89 "HgN/A
10:20 AM79 °FSunny.2 mph61%29.89 "Hg10 mi
9:50 AM77 °FSunny.2 mph65%29.89 "Hg10 mi
9:20 AM77 °FSunny.2 mph69%29.89 "Hg10 mi
8:50 AM77 °FSunny.1 mph74%29.89 "Hg10 mi
8:20 AM75 °FClear.No wind74%29.89 "HgN/A
7:50 AM72 °FSunny.3 mph83%29.89 "Hg10 mi
7:20 AM70 °FSunny.3 mph88%29.89 "Hg10 mi
6:50 AM68 °FClear.1 mph88%29.89 "Hg5 mi
6:20 AM66 °FClear.No wind94%29.86 "Hg4 mi
5:50 AM66 °FClear.2 mph88%29.86 "Hg4 mi
5:20 AM64 °FClear.3 mph94%29.86 "Hg4 mi
4:50 AM64 °FClear.1 mph94%29.86 "Hg4 mi
4:20 AM66 °FPassing clouds.3 mph88%29.86 "Hg4 mi
3:50 AM66 °FClear.2 mph88%29.86 "Hg4 mi
3:20 AM66 °FClear.1 mph88%29.86 "Hg4 mi
2:50 AM66 °FClear.No wind88%29.86 "Hg4 mi
2:20 AM66 °FClear.2 mph94%29.86 "Hg4 mi
1:50 AM68 °FClear.2 mph88%29.86 "Hg10 mi
1:20 AM68 °FClear.2 mph94%29.89 "Hg10 mi
12:50 AM70 °FClear.2 mph88%29.89 "Hg10 mi
12:20 AM70 °FClear.2 mph88%29.89 "Hg10 mi
11:50 PM
Jul 24
68 °FClear.3 mph94%29.89 "Hg10 mi
11:20 PM70 °FClear.2 mph88%29.89 "Hg10 mi
10:50 PM70 °FClear.No wind88%29.89 "Hg10 mi
10:20 PM70 °FClear.No wind88%29.89 "Hg10 mi
9:50 PM72 °FClear.2 mph83%29.86 "Hg10 mi
9:20 PM73 °FClear.No wind78%29.86 "Hg10 mi
8:50 PM73 °FSunny.3 mph78%29.86 "Hg10 mi
8:20 PM73 °FSunny.3 mph78%29.86 "Hg10 mi
7:50 PM75 °FSunny.5 mph74%29.86 "Hg10 mi
7:20 PM77 °FPassing clouds.6 mph69%29.83 "HgN/A
6:50 PM79 °FPassing clouds.6 mph61%29.83 "HgN/A
6:20 PM79 °FPassing clouds.7 mph58%29.83 "HgN/A
Weather by CustomWeather, © 2014

See weather overviewHow to use our weather pages